STARLINK-30113, 56291

Orbit data source: Space-Track

STARLINK-30113, 56291 is a payload satellite owned by SpaceX/Seattle (US) in LEO that was launched on Wed, 19 Apr 2023 UTC via an FALCON 9 launch vehicle from the Air Force Eastern Test Range (AFETR). Payload-class satellites include a variety of spacecraft equipped with specific instruments for various scientific and technological missions. These include communications satellites like Starlink; space stations such as the ISS; scientific satellites like the Hubble; Earth observation satellites from companies like Planet Labs, Umbra, and HawkEye 360; GPS; miniature CubeSats for education and research; and military/defense satellites.

Loading next visibility...
Identifier
56291, 2023-056F
Orbit
LEO
Country
Flag of USUS
Related business
Manufacturer
SpaceX/Seattle
Mission
Operational Commercial Communications
Bus & Motor
STARLINK V2M, Unknown motor
Mass
730 kg wet, ~700 kg dry
Launch date (UTC)
2023-04-19 (3 years ago)
Launch vehicle
FALCON 9
Launch site
Air Force Eastern Test Range (AFETR)
Object type
Payload
Rocket body
Debris
Shape & HBR
Box + 2 Pan, 17.7 m
Radar Cross Section
33.884 m², Large (>1 m²)

Expand to show TLE details & history
Last TLE update: 17 hours ago

TLE from 17 hours ago
0 STARLINK-30113
1 56291U 23056F   25348.91202398 -.00001352  00000-0 -85068-4 0  9999
2 56291  43.0052 310.7227 0001379 273.3748  86.6937 15.02533283147277
Epoch: 2025-12-14T21:53Z
TLE epoch observation values (Epoch: 2025-12-14T21:53:18.871Z)
Latitude
-0.00001°
Longitude
-101.42408°
Altitude
558.811 km
Speed
7.584 km/s
True Right ascension
20h 42m 53s
True Declination
0° 00' 00"
Sunlit
Object was in daylight at epoch
Visualization orbit readout
Latitude
Unknown
Longitude
Unknown
Altitude
Unknown
Speed
Unknown
Apparent Right ascension
Unknown
Apparent Declination
Unknown
Sunlit
N/A
Visualization observer readout
Local Sidereal Time
13:23:48
Azimuth
Unknown
Elevation
Unknown
Doppler factor
Unknown
Orbital elements
Apogee altitude
561.968 km
Perigee altitude
560.054 km
Semi-major axis
6,939.148 km
Eccentricity
0.00014
Inclination
43.0052°
RAAN
310.7227°
Arg. of periapsis
273.3748°
True anomaly
86.70948°
Mean anomaly
86.6937°
Eccentric anomaly
86.70159°
Mean motion
3.75478 °/min
Orbital period
95.88 mins
BSTAR
-0.000085068
Loading maneuver chart data...
Computing Atmospheric mass density...
Loading historical data...
Loading historical data...
Loading historical data...
Loading historical data...
Loading historical data...
Loading historical data...
Loading historical data...

Documentation

Showing up to 5 results
|